Regional Weather Roundup
Issued by NWS

Home | Current Version | Previous Version | Graphics & Text | Print | Product List | Glossary On
Versions: 1 2 3 4 5 6 7 8 9 10 11 12 13 14 15 16 17 18 19 20 21 22 23 24 25 26 27 28 29 30 31 32 33 34 35 36 37 38 39 40 41 42 43 44 45 46 47 48 49 50
000
ASUS43 KFSD 191710
RWRSD

WEATHER ROUNDUP FOR SOUTH DAKOTA
NATIONAL WEATHER SERVICE SIOUX FALLS SD
1200 PM CDT TUE SEP 19 2017

NOTE: "FAIR" INDICATES FEW OR NO CLOUDS BELOW 12,000 FEET WITH NO
SIGNIFICANT WEATHER AND/OR OBSTRUCTIONS TO VISIBILITY.


SDZ001>005-009-010-012>017-191800-
NORTHWEST AND NORTH CENTRAL SOUTH DAKOTA

CITY           SKY/WX    TMP DP  RH WIND       PRES   REMARKS
BUFFALO          N/A     63  47  55 W8        29.48S
MOBRIDGE       LGT RAIN  69  65  86 SE15G29   29.47F
$$

SDZ012>016-024>037-041>051-057-063-072>074-191800-
SOUTHWEST AND SOUTH CENTRAL SOUTH DAKOTA

CITY           SKY/WX    TMP DP  RH WIND       PRES   REMARKS
RAPID CTY ARPT SUNNY     66  45  45 N17G24    29.56F
PIERRE         CLOUDY    70  62  76 SE18      29.50F
CUSTER         CLOUDY    65  39  38 W10G18    29.66S
ELLSWORTH AFB  CLOUDY    65  43  44 N13       29.56S
PHILIP         CLOUDY    73  59  61 SW9       29.50S
PINE RIDGE     CLOUDY    67  55  65 SW9       29.57S
SPEARFISH      FAIR      63  43  48 CALM      29.59F
WINNER         FAIR      76  66  71 S22G28    29.53F
$$

SDZ004>011-016>023-039-040-191800-
NORTHEAST SOUTH DAKOTA

CITY           SKY/WX    TMP DP  RH WIND       PRES   REMARKS
ABERDEEN       CLOUDY    76  64  66 SE26G33   29.59F
WATERTOWN      CLOUDY    68  65  90 SE21G29   29.69F
BROOKINGS      CLOUDY    66  65  96 S18G24    29.73F
SISSETON         N/A     69  65  86 SE21G31   29.67F
$$

SDZ017-020-022-023-036>040-048>070-191800-
SOUTHEAST SOUTH DAKOTA

CITY           SKY/WX    TMP DP  RH WIND       PRES   REMARKS
SIOUX FALLS    CLOUDY    70  67  90 SE20G25   29.72F FOG
HURON          CLOUDY    71  65  81 SE21G30   29.60F
CHAMBERLAIN    CLOUDY    72  68  87 SE20G30   29.55F
MITCHELL       CLOUDY    74  66  76 SE24G33   29.63F
YANKTON        PTSUNNY   75  68  78 SE20      29.67F
$$

ABBREVIATIONS USED IN REMARKS
   TC - TEMPERATURE IN CELSIUS
  WCI - WIND CHILL INDEX
   HX - HEAT INDEX
  VSB - VISIBILITY




USA.gov is the U.S. government's official web portal to all federal, state and local government web resources and services.